Meteo Giornale » Osservazioni meteo Svizzera » Bern-Belp

ore: 12:50 - Osservazioni Meteo Bern-Belp
Lat. 46° 55' N Lon. 7° 30' E Alt. 505 metri s.l.m.

coperto_pioggia Europe/Zurich

10 °C

Pioggia

Temp. 24 Ore

9 °C

16 °C

Est

13 Km/h

Dew point 10 °C

Umidità 100 %

Visibilità  10 Km

Il sole sorge alle ore 05:47

Il sole tramonta alle ore 21:05

Data e Ora Cielo e Fenomeni T °C DP °C Um. % Pres. hPa Vis. km Vento km/h
Oggi h: 12:50 coperto_pioggia Pioggia 10 10 100 1008 10 E 13
Oggi h: 12:20 coperto_pioggia Pioggia Debole 10 9 93 1008 8 SE 16.7
Oggi h: 11:50 coperto_pioggia Pioggia Debole 10 9 93 1008 7 SE 16.7
Oggi h: 11:20 coperto_pioggia Pioggia Debole 10 9 93 1008 6 S/SE 18.5
Oggi h: 10:50 coperto_pioggia Pioggia Debole 10 10 100 1008 7 S/SE 18.5
Oggi h: 10:20 coperto_pioggia Pioggia Debole 10 9 93 1007 10 S/SE 14.8
Oggi h: 09:50 coperto_pioggia Pioggia Debole 10 9 93 1007 7 S/SE 18.5
Oggi h: 09:20 coperto_pioggia Pioggia 9 9 100 1007 7 SE 14.8
Oggi h: 08:50 coperto_pioggia Pioggia 9 9 100 1007 5 S 13
Oggi h: 08:20 coperto_pioggia Pioggia 9 9 100 1007 4 E/SE 13
Oggi h: 07:50 coperto_pioggia Pioggia 9 9 100 1006 5 E/SE 9.3
Oggi h: 07:20 coperto_pioggia Pioggia 9 9 100 1006 8 E/SE 7.4
Oggi h: 06:50 coperto_pioggia Pioggia 9 9 100 1006 6 SE 13
Oggi h: 06:20 coperto_pioggia Pioggia 9 9 100 1006 7 SE 11.1
Oggi h: 05:50 coperto_pioggia Pioggia Debole 9 9 100 1006 7 SE 9.3
Oggi h: 05:20 coperto_pioggia Pioggia 9 9 100 1006 10 SE 11.1
Oggi h: 04:50 coperto_pioggia Pioggia 9 9 100 1006 8 SE 7.4
Oggi h: 04:20 coperto_pioggia Pioggia 9 9 100 1006 7 E 9.3
Oggi h: 03:50 coperto_pioggia Pioggia 10 10 100 1006 5 E/SE 11.1
Oggi h: 03:20 coperto_pioggia Pioggia Debole 10 10 100 1006 8 SE 14.8
Oggi h: 02:50 coperto_pioggia Pioggia Debole 10 10 100 1006 6 SE 9.3
Oggi h: 02:20 coperto_pioggia Pioggia Debole 10 10 100 1006 10 S/SE 13
Oggi h: 01:50 coperto_pioggia Pioggia Debole 11 10 93 1006 10 S/SE 14.8
Oggi h: 01:20 coperto_pioggia Pioggia Debole 11 11 100 1006 10 S/SE 14.8
Oggi h: 00:50 coperto_pioggia Pioggia Debole 11 11 100 1006 10 SE 9.3
Oggi h: 00:20 coperto_pioggia Pioggia Debole 12 12 100 1006 9 S/SE 9.3
Ieri h: 23:50 coperto_pioggia Pioggia Debole 12 12 100 1006 7 N 5.5
Ieri h: 23:20 coperto_pioggia Pioggia 12 12 100 1006 6 E/SE 7.4
Ieri h: 22:50 coperto_pioggia Pioggia 12 12 100 1006 4 E/SE 7.4
Ieri h: 22:20 coperto_pioggia Pioggia Debole 12 12 100 1006 8 N 5.5
Ieri h: 21:50 coperto_pioggia Pioggia 12 12 100 1005 6 SE 7.4
Ieri h: 21:20 coperto_pioggia Pioggia Debole 12 12 100 1005 10 N 1.8
Ieri h: 20:50 molto_nuvoloso Molto Nuvoloso 12 12 100 1005 10 N 3.7
Ieri h: 20:20 molto_nuvoloso Molto Nuvoloso 13 11 87 1005 10 N 5.5
Ieri h: 19:50 molto_nuvoloso Rovescio nelle Vicinanze 14 11 82 1004 10 N 9.3
Ieri h: 19:20 molto_nuvoloso Rovescio nelle Vicinanze 15 11 76 1004 10 NO 7.4
Ieri h: 18:50 molto_nuvoloso Rovescio nelle Vicinanze 16 10 67 1004 10 O 9.3
Ieri h: 18:20 molto_nuvoloso Molto Nuvoloso 15 11 76 1004 10 NO 7.4
Ieri h: 17:50 molto_nuvoloso Molto Nuvoloso 15 11 76 1004 10 N 5.5
Ieri h: 17:20 molto_nuvoloso Molto Nuvoloso 14 12 87 1004 10 N 5.5
Ieri h: 16:50 coperto_pioggia Pioviggine 15 12 82 1004 10 S 9.3
Ieri h: 16:20 molto_nuvoloso Molto Nuvoloso 15 12 82 1004 10 N 5.5
Ieri h: 15:50 molto_nuvoloso Molto Nuvoloso 14 11 82 1004 10 N 5.5
Ieri h: 15:20 molto_nuvoloso Molto Nuvoloso 14 12 87 1004 8 N 3.7
Ieri h: 14:50 molto_nuvoloso Molto Nuvoloso 13 12 93 1004 10 N 3.7
Ieri h: 14:20 molto_nuvoloso Rovescio nelle Vicinanze 14 12 87 1004 10 N 7.4
Ieri h: 13:50 molto_nuvoloso Molto Nuvoloso 15 10 72 1004 10 N/NO 13